sat.trackr.live / text

‹ back to catalog

STARLINK-31586

NORAD 59205 · 2024-046E

PAYLOAD ACTIVE UNKNOWN

§ Identity

Operator
Country
US
Launch date
2024-03-11
Launch site
AFWTR
Launch vehicle
Mass (kg)
RCS (m²)

Purposes: comms

External: N2YO · Heavens-Above · Gunter

§ Orbital elements

Epoch: 2026-09-20T10:46:45.784128Z

Period
93.85 min
Inclination
53.1598°
Eccentricity
0.0001361
Mean motion
15.34389722 rev/d
Perigee alt
461.8 km
Apogee alt
463.7 km
Semi-major
6,840.9 km
B*
-5.2115e-7
RAAN
329.6044°
Arg perigee
56.9144°
Mean anomaly
303.1989°
Rev number
14,288

§ Raw data

STARLINK-315861 59205U 24046E   26263.44914102 -.00000394  00000+0 -52115-6 0  99982 59205  53.1598 329.6044 0001361  56.9144 303.1989 15.34389722142882

JSON: /api/v1/satellites/59205 · /tle

For live sub-satellite position, see the globe view (requires WebGL).

§ Visibility from observer

Set your observer location to see the next 7 days of passes ≥ 10°. The values pass through the URL so the page stays shareable.

No JS? Fill the form by hand. The geolocation button needs JavaScript.